Back to catalog

TDRS 3

AliveCommunicationsGEO
NORAD 19548·PAYLOAD·🇺🇸 United States

Launched Sep 29, 1988 from Cape Canaveral Space Force Station

Loading…

TLE

FreshSource: Space-Track

Epoch: Sep 14, 2026, 15:05 UTC

1 19548U 88091B   26257.62870108 -.00000304  00000-0  00000-0 0  9995
2 19548  12.5356 340.4030 0038462 352.4664 198.2592  1.00274760126280

Track TDRS 3 in real time with AllMySat

Download on the App Store